Location: San Martino di Castrozza
(46.2667°N, 11.8000°E)
Time: 15:30:58
(UTC+00:00)

Cosmos 1900 - Pass Details

Date: 23 April 2021
Orbit: 686 x 736 km, 66.1° (Epoch: 13 May)

Event Time Altitude Azimuth Distance (km) Brightness Sun altitude
Exits shadow 02:56:49 17° 225° (SW) 1,794 5.8 -12.5°
Maximum altitude 03:00:44 70° 306° (NW) 780 4.5 -11.9°
Drops below altitude 10° 03:05:49 10° 31° (NNE) 2,225 8.0 -11.2°
Sets 03:08:11 0° 34° (NNE) 3,142 9.0 -10.8°
